Lid_Strength_Index
15 12 13 14 15 15 16 15 17 15 15 12 12 10 9 8 8 8 9 9 8 6 6 6 5 4 4 4 3 3 3 3 3 2 2 2 3 3 3 3 2 3 4 5
15 12 12 14 13 14 15 15 15 15 15 11 9 9 8 9 9 9 10 9 9 8 5 5 5 5 4 4 4 4 4 5 4 3 3 3 4 3 3 3 3 4 5 6
18 13 13 18 14 14 14 14 14 16 13 11 11 11 11 10 9 10 10 9 9 8 8 6 5 5 6 6 6 5 5 5 5 5 4 4 3 4 4 4 5 6 6 7
17 15 25 13 10 11 13 13 13 13 12 11 11 10 10 7 9 10 10 9 9 9 9 8 5 5 5 6 6 7 6 6 5 5 5 4 4 4 5 5 6 7 8 7
19 18 15 13 11 12 13 14 11 13 12 11 11 10 11 8 9 9 10 9 9 9 9 9 6 4 4 5 6 5 5 5 6 5 5 5 5 5 6 6 7 7 9 10
18 21 24 13 9 8 9 16 10 11 11 12 11 15 14 10 9 9 8 9 9 9 8 9 7 3 5 5 6 6 5 4 4 4 6 6 6 7 7 7 8 10 10 10
16 17 15 9 8 8 16 14 9 9 10 11 12 11 10 9 9 8 8 9 8 8 9 8 7 4 5 5 6 5 5 5 4 4 5 7 8 8 9 10 11 12 12 12
17 17 18 7 8 12 9 8 8 8 9 10 10 9 9 10 10 10 10 10 9 9 9 8 7 6 5 5 4 5 6 6 5 4 5 6 7 8 9 11 13 13 13 14
13 14 9 7 8 6 6 7 8 8 8 8 9 10 10 10 10 10 9 9 9 9 8 7 7 8 9 7 5 6 6 7 5 5 5 7 6 8 10 10 12 14 14 15
12 10 8 8 6 6 5 6 6 5 6 7 8 8 9 9 10 10 9 9 8 8 9 9 9 8 8 8 5 5 6 7 6 6 6 6 6 7 10 11 13 14 15 16
12 9 7 7 6 6 5 5 6 5 5 6 7 7 7 8 9 9 9 10 10 9 9 10 10 9 9 7 4 6 6 7 7 6 6 7 7 8 10 9 11 13 14 14
13 8 8 8 6 5 6 7 6 6 6 6 6 6 6 7 7 7 7 6 8 8 9 9 10 9 7 6 5 6 7 7 7 7 7 7 9 12 13 13 13 13 14 14
9 6 6 6 6 6 7 7 6 7 7 7 6 6 6 7 6 6 6 6 7 7 6 6 6 6 5 7 5 6 7 8 8 8 7 8 9 10 13 15 13 14 14 14
6 5 7 7 8 6 6 6 6 7 7 7 7 6 7 7 6 7 7 6 6 6 7 6 6 6 5 6 7 7 7 11 9 8 7 8 9 10 10 13 14 15 14 14
6 7 7 7 7 7 7 7 8 8 8 8 7 8 7 8 8 7 6 6 7 9 9 9 9 9 8 7 7 8 7 8 8 9 9 9 9 10 11 11 12 14 14 14
7 7 7 8 8 8 8 8 9 9 9 9 9 9 8 8 8 8 7 7 8 8 8 10 10 9 10 8 8 8 8 9 8 8 9 10 10 10 11 11 12 13 14 14
9 10 10 10 10 9 9 9 9 9 10 10 10 9 9 9 9 9 9 8 9 9 8 9 8 8 9 9 7 7 6 7 8 8 8 8 9 9 10 10 12 12 13 13
8 9 9 9 9 9 9 9 10 10 11 10 10 11 11 11 11 11 10 9 9 9 9 8 8 8 9 7 7 7 6 6 6 6 7 7 8 8 9 10 11 12 12 13
8 8 8 8 8 9 10 10 10 10 10 11 11 11 11 10 10 10 9 10 10 10 9 8 9 9 8 8 7 6 6 6 6 6 6 7 7 7 9 9 11 11 12 13
8 8 8 8 8 9 10 10 10 10 10 10 11 12 12 11 10 10 9 9 9 8 7 8 9 9 8 9 9 7 7 6 7 6 6 6 6 7 9 10 11 11 13 13
8 8 8 8 9 9 10 10 10 10 10 11 11 12 12 12 11 10 10 10 9 8 7 8 8 7 10 10 10 9 8 8 7 6 5 6 7 6 7 10 11 11 12 13
8 8 9 9 9 10 9 9 10 10 11 11 10 10 11 11 12 12 11 11 10 9 9 9 9 8 8 9 8 8 8 7 7 6 5 6 6 7 8 9 11 11 12 12
8 8 8 9 9 10 12 12 10 10 11 11 11 11 11 11 11 13 14 12 10 10 10 10 10 9 9 9 9 8 8 7 8 7 6 6 7 7 8 8 10 11 12 12
8 7 8 8 10 10 11 10 10 11 12 12 11 11 11 11 11 11 11 10 10 10 10 10 10 10 10 10 10 10 9 8 7 7 6 7 7 7 7 8 9 10 11 12
7 7 8 8 9 10 10 10 10 12 11 11 11 11 10 10 11 11 11 11 11 11 10 10 10 10 10 10 10 9 9 8 8 7 7 7 7 8 8 8 8 9 10 11
7 7 7 8 9 9 9 9 11 12 11 12 12 11 10 10 10 10 10 11 11 12 12 12 12 12 12 12 11 10 9 8 7 7 7 8 8 8 8 9 9 10 11 11
8 8 8 12 12 8 9 9 11 11 11 11 12 11 11 10 10 10 10 10 11 11 11 12 12 12 12 12 12 12 11 10 9 9 9 9 9 9 9 10 11 12 11 11